Regional Weather Roundup
Issued by NWS

Home | Current Version | Previous Version | Text Only | Print | Product List | Glossary Off
Versions: 1 2 3 4 5 6 7 8 9 10 11 12 13 14 15 16 17 18 19 20 21 22 23 24 25 26

000
ASUS45 KCYS 260510
RWRWY

WYOMING REGIONAL WEATHER ROUNDUP
NATIONAL WEATHER SERVICE CHEYENNE WY
1100 PM MDT WED MAY 25 2016

NOTE:  "FAIR" INDICATES FEW OR NO CLOUDS BELOW 12,000 FEET
WITH NO SIGNIFICANT WEATHER AND/OR OBSTRUCTIONS TO VISIBILITY.

WYZ001-260600-
YELLOWSTONE NATIONAL PARK

CITY           SKY/WX    TMP DP  RH WIND       PRES   REMARKS
LK YELLOWSTONE   N/A     32  29  88 CALM      30.12R
W YELLOWSTONE  NOT AVBL

$$
WYZ002>013-054>058-071-098>099-260600-
NORTHERN WYOMING

CITY           SKY/WX    TMP DP  RH WIND       PRES   REMARKS
JACKSON        FAIR      39  37  93 CALM      30.10S
CODY           CLOUDY    52  37  58 CALM      29.96F
GREYBULL       FAIR      51  48  89 SE3       29.95R
WORLAND        FAIR      51  46  83 S10       29.95S
SHERIDAN       FAIR      43  40  89 SW6       29.91R
BUFFALO        FAIR      49  40  71 S7        29.96S
GILLETTE       FAIR      52  45  77 SW16      29.93S
HULETT         FAIR      45  43  93 S9        29.93F
NEWCASTLE      FAIR      50  41  71 N7        29.94S

$$
WYZ014>020-022>026-101>103-260600-
CENTRAL WYOMING

CITY           SKY/WX    TMP DP  RH WIND       PRES   REMARKS
BIG PINEY      CLOUDY    43  36  76 CALM      30.12S
PINEDALE       MOCLDY    37  37 100 CALM      30.12F
DUBOIS         MOCLDY    39  32  75 NW7       30.07S WCI  34
LANDER         FAIR      51  31  46 CALM      30.00R
RIVERTON       CLOUDY    50  40  68 N6        30.01R
CASPER         FAIR      48  37  65 W8        29.98S
DOUGLAS          N/A    N/A N/A N/A MISG      29.98S

$$
WYZ021-027>030-104>119-260600-
SOUTHERN WYOMING

CITY           SKY/WX    TMP DP  RH WIND       PRES   REMARKS
EVANSTON       CLOUDY    43  35  73 SE5       30.12R
KEMMERER         N/A     39  34  81 S3        30.12S
FORT BRIDGER   PTCLDY    41  41 100 S9        30.14S
ROCK SPRINGS   FAIR      43  34  70 SW15      30.10S
DIXON          FAIR      43  33  67 CALM      30.13R
RAWLINS        FAIR      45  33  63 W14       30.08S
SARATOGA       FAIR      41  32  70 W10       30.10S
LARAMIE        FAIR      39  30  70 CALM      30.09R
CHEYENNE       FAIR      50  34  54 CALM      30.04R
TORRINGTON     FAIR      50  41  71 NE8       29.95F
PINE BLUFFS    MOCLDY    54  39  58 N12       29.98F

$$




USA.gov is the U.S. government's official web portal to all federal, state and local government web resources and services.